Time,TemperatureF,DewpointF,PressureIn,WindDirection,WindDirectionDegrees,WindSpeedMPH,WindSpeedGustMPH,Humidity,HourlyPrecipIn,Conditions,Clouds,dailyrainin,SoftwareType,DateUTC
2013-03-26 00:12:00,28.6,23.8,29.55,NW,315,0.0,-999.0,82,-99.99,,,0.00,Acu-Link.com,2013-03-26 05:12:00,
2013-03-26 00:27:00,28.4,23.6,29.55,NW,315,0.0,-999.0,82,-99.99,,,0.00,Acu-Link.com,2013-03-26 05:27:00,
2013-03-26 00:43:00,28.4,23.6,29.56,NNE,22,0.0,-999.0,82,-99.99,,,0.00,Acu-Link.com,2013-03-26 05:43:00,
2013-03-26 00:58:00,29.1,23.7,29.56,ENE,67,0.0,-999.0,80,-99.99,,,0.00,Acu-Link.com,2013-03-26 05:58:00,
2013-03-26 01:13:00,28.9,23.5,29.56,NNE,22,0.0,-999.0,80,-99.99,,,0.00,Acu-Link.com,2013-03-26 06:13:00,
2013-03-26 01:28:00,28.2,23.1,29.56,NNW,337,0.0,-999.0,81,-99.99,,,0.00,Acu-Link.com,2013-03-26 06:28:00,
2013-03-26 01:43:00,27.9,22.8,29.56,NNE,22,0.0,-999.0,81,-99.99,,,0.00,Acu-Link.com,2013-03-26 06:43:00,
2013-03-26 01:58:00,27.3,22.0,29.56,NNW,337,0.0,-999.0,80,-99.99,,,0.00,Acu-Link.com,2013-03-26 06:58:00,
2013-03-26 02:13:00,26.6,21.3,29.56,NE,45,0.0,-999.0,80,-99.99,,,0.00,Acu-Link.com,2013-03-26 07:13:00,
2013-03-26 02:28:00,26.1,20.8,29.56,NNW,337,0.0,-999.0,80,-99.99,,,0.00,Acu-Link.com,2013-03-26 07:28:00,
2013-03-26 02:43:00,25.5,20.5,29.56,NW,315,0.0,-999.0,81,-99.99,,,0.00,Acu-Link.com,2013-03-26 07:43:00,
2013-03-26 02:59:00,25.2,20.2,29.56,NNW,337,0.0,-999.0,81,-99.99,,,0.00,Acu-Link.com,2013-03-26 07:59:00,
2013-03-26 03:14:00,24.8,19.8,29.57,NW,315,0.0,-999.0,81,-99.99,,,0.00,Acu-Link.com,2013-03-26 08:14:00,
2013-03-26 03:44:00,24.1,18.8,29.57,NW,315,0.0,-999.0,80,-99.99,,,0.00,Acu-Link.com,2013-03-26 08:44:00,
2013-03-26 03:59:00,23.5,18.3,29.56,NNW,337,0.0,-999.0,80,-99.99,,,0.00,Acu-Link.com,2013-03-26 08:59:00,
2013-03-26 04:14:00,23.2,18.3,29.57,North,0,0.0,-999.0,81,-99.99,,,0.00,Acu-Link.com,2013-03-26 09:14:00,
2013-03-26 04:30:00,22.8,18.1,29.57,NW,315,0.0,-999.0,82,-99.99,,,0.00,Acu-Link.com,2013-03-26 09:30:00,
2013-03-26 04:45:00,22.5,17.9,29.56,NNW,337,0.0,-999.0,82,-99.99,,,0.00,Acu-Link.com,2013-03-26 09:45:00,
2013-03-26 05:00:00,21.9,17.3,29.57,NNW,337,0.0,-999.0,82,-99.99,,,0.00,Acu-Link.com,2013-03-26 10:00:00,
2013-03-26 05:15:00,21.7,17.1,29.57,WNW,292,0.0,-999.0,82,-99.99,,,0.00,Acu-Link.com,2013-03-26 10:15:00,
2013-03-26 05:30:00,21.6,17.0,29.57,WNW,292,0.0,-999.0,82,-99.99,,,0.00,Acu-Link.com,2013-03-26 10:30:00,
2013-03-26 05:45:00,21.4,16.8,29.57,NW,315,0.0,-999.0,82,-99.99,,,0.00,Acu-Link.com,2013-03-26 10:45:00,
2013-03-26 06:00:00,21.4,16.8,29.58,NW,315,0.0,-999.0,82,-99.99,,,0.00,Acu-Link.com,2013-03-26 11:00:00,
2013-03-26 06:15:00,21.2,16.6,29.58,NE,45,0.0,-999.0,82,-99.99,,,0.00,Acu-Link.com,2013-03-26 11:15:00,
2013-03-26 06:30:00,20.8,16.2,29.58,NNW,337,0.0,-999.0,82,-99.99,,,0.00,Acu-Link.com,2013-03-26 11:30:00,
2013-03-26 06:46:00,21.0,16.4,29.58,North,0,0.0,-999.0,82,-99.99,,,0.00,Acu-Link.com,2013-03-26 11:46:00,
2013-03-26 07:01:00,21.0,16.1,29.59,NW,315,0.0,-999.0,81,-99.99,,,0.00,Acu-Link.com,2013-03-26 12:01:00,
2013-03-26 08:01:00,20.1,15.5,29.62,West,270,0.0,-999.0,82,-99.99,,,0.00,Acu-Link.com,2013-03-26 13:01:00,
2013-03-26 08:16:00,20.8,16.2,29.62,NNW,337,0.0,-999.0,82,-99.99,,,0.00,Acu-Link.com,2013-03-26 13:16:00,
2013-03-26 08:31:00,21.7,16.8,29.62,NW,315,0.0,-999.0,81,-99.99,,,0.00,Acu-Link.com,2013-03-26 13:31:00,
2013-03-26 09:02:00,25.0,18.5,29.63,NNW,337,0.0,-999.0,76,-99.99,,,0.00,Acu-Link.com,2013-03-26 14:02:00,
2013-03-26 09:17:00,26.4,18.9,29.63,NNW,337,0.0,-999.0,73,-99.99,,,0.00,Acu-Link.com,2013-03-26 14:17:00,
2013-03-26 09:32:00,27.3,19.2,29.64,North,0,0.0,-999.0,71,-99.99,,,0.00,Acu-Link.com,2013-03-26 14:32:00,
2013-03-26 09:47:00,28.4,19.6,29.63,NW,315,0.0,-999.0,69,-99.99,,,0.00,Acu-Link.com,2013-03-26 14:47:00,
2013-03-26 10:02:00,29.3,19.4,29.63,NNW,337,0.0,-999.0,66,-99.99,,,0.00,Acu-Link.com,2013-03-26 15:02:00,
2013-03-26 10:17:00,29.7,19.4,29.63,NW,315,0.0,-999.0,65,-99.99,,,0.00,Acu-Link.com,2013-03-26 15:17:00,
2013-03-26 10:32:00,30.9,19.8,29.63,NNE,22,0.0,-999.0,63,-99.99,,,0.00,Acu-Link.com,2013-03-26 15:32:00,
2013-03-26 10:54:00,32.4,20.9,29.64,NNW,337,0.0,-999.0,62,-99.99,,,0.00,Acu-Link.com,2013-03-26 15:54:00,
2013-03-26 11:09:00,32.9,20.9,29.64,NNW,337,0.0,-999.0,61,-99.99,,,0.00,Acu-Link.com,2013-03-26 16:09:00,
2013-03-26 11:24:00,33.3,21.3,29.64,NW,315,0.0,-999.0,61,-99.99,,,0.00,Acu-Link.com,2013-03-26 16:24:00,
2013-03-26 11:39:00,33.8,21.8,29.64,NW,315,0.0,-999.0,61,-99.99,,,0.00,Acu-Link.com,2013-03-26 16:39:00,
2013-03-26 11:54:00,34.0,22.4,29.64,NE,45,0.0,-999.0,62,-99.99,,,0.00,Acu-Link.com,2013-03-26 16:54:00,
2013-03-26 12:09:00,34.2,22.2,29.64,NW,315,0.0,-999.0,61,-99.99,,,0.00,Acu-Link.com,2013-03-26 17:09:00,
2013-03-26 12:24:00,34.9,22.4,29.63,NNW,337,0.0,-999.0,60,-99.99,,,0.00,Acu-Link.com,2013-03-26 17:24:00,
2013-03-26 12:39:00,34.7,21.9,29.63,South,180,0.0,-999.0,59,-99.99,,,0.00,Acu-Link.com,2013-03-26 17:39:00,
2013-03-26 12:55:00,35.2,21.9,29.64,North,0,0.0,-999.0,58,-99.99,,,0.00,Acu-Link.com,2013-03-26 17:55:00,
2013-03-26 13:10:00,35.8,22.9,29.63,NNE,22,0.0,-999.0,59,-99.99,,,0.00,Acu-Link.com,2013-03-26 18:10:00,
2013-03-26 13:25:00,36.0,22.3,29.63,WNW,292,0.0,-999.0,57,-99.99,,,0.00,Acu-Link.com,2013-03-26 18:25:00,
2013-03-26 13:40:00,36.5,22.3,29.62,NNW,337,0.0,-999.0,56,-99.99,,,0.00,Acu-Link.com,2013-03-26 18:40:00,
2013-03-26 13:55:00,37.0,23.2,29.62,NNW,337,0.0,-999.0,57,-99.99,,,0.00,Acu-Link.com,2013-03-26 18:55:00,
2013-03-26 14:10:00,37.9,23.2,29.62,West,270,0.0,-999.0,55,-99.99,,,0.00,Acu-Link.com,2013-03-26 19:10:00,
2013-03-26 14:25:00,38.1,25.1,29.61,NNW,337,0.0,-999.0,59,-99.99,,,0.00,Acu-Link.com,2013-03-26 19:25:00,
2013-03-26 14:40:00,38.7,25.2,29.61,SSW,202,0.0,-999.0,58,-99.99,,,0.00,Acu-Link.com,2013-03-26 19:40:00,
2013-03-26 14:55:00,39.0,24.2,29.61,West,270,0.0,-999.0,55,-99.99,,,0.00,Acu-Link.com,2013-03-26 19:55:00,
2013-03-26 15:11:00,39.6,25.2,29.60,NNE,22,0.0,-999.0,56,-99.99,,,0.00,Acu-Link.com,2013-03-26 20:11:00,
2013-03-26 15:26:00,37.8,24.0,29.60,North,0,0.0,-999.0,57,-99.99,,,0.00,Acu-Link.com,2013-03-26 20:26:00,
2013-03-26 15:56:00,39.6,24.8,29.59,SW,225,0.0,-999.0,55,-99.99,,,0.00,Acu-Link.com,2013-03-26 20:56:00,
2013-03-26 16:26:00,38.7,26.0,29.59,SSW,202,0.0,-999.0,60,-99.99,,,0.00,Acu-Link.com,2013-03-26 21:26:00,
2013-03-26 17:11:00,40.8,24.1,29.58,WSW,247,0.0,-999.0,51,-99.99,,,0.00,Acu-Link.com,2013-03-26 22:11:00,
2013-03-26 17:27:00,45.1,24.5,29.59,SSW,202,0.0,-999.0,44,-99.99,,,0.00,Acu-Link.com,2013-03-26 22:27:00,
2013-03-26 17:42:00,45.0,25.0,29.58,SW,225,0.0,-999.0,45,-99.99,,,0.00,Acu-Link.com,2013-03-26 22:42:00,
2013-03-26 17:57:00,43.9,24.0,29.59,SSW,202,0.0,-999.0,45,-99.99,,,0.00,Acu-Link.com,2013-03-26 22:57:00,
2013-03-26 18:12:00,44.6,23.5,29.58,SW,225,0.0,-999.0,43,-99.99,,,0.00,Acu-Link.com,2013-03-26 23:12:00,
2013-03-26 18:27:00,44.6,23.5,29.58,SW,225,0.0,-999.0,43,-99.99,,,0.00,Acu-Link.com,2013-03-26 23:27:00,
2013-03-26 18:42:00,42.6,23.3,29.58,SSW,202,0.0,-999.0,46,-99.99,,,0.00,Acu-Link.com,2013-03-26 23:42:00,
2013-03-26 18:57:00,39.6,21.5,29.58,SW,225,0.0,-999.0,48,-99.99,,,0.00,Acu-Link.com,2013-03-26 23:57:00,
2013-03-26 19:12:00,38.7,22.6,29.59,West,270,0.0,-999.0,52,-99.99,,,0.00,Acu-Link.com,2013-03-27 00:12:00,
2013-03-26 19:27:00,34.9,21.6,29.58,SSW,202,0.0,-999.0,58,-99.99,,,0.00,Acu-Link.com,2013-03-27 00:27:00,
2013-03-26 19:43:00,32.5,20.9,29.58,SW,225,0.0,-999.0,62,-99.99,,,0.00,Acu-Link.com,2013-03-27 00:43:00,
2013-03-26 19:58:00,29.7,20.8,29.58,SSW,202,0.0,-999.0,69,-99.99,,,0.00,Acu-Link.com,2013-03-27 00:58:00,
2013-03-26 20:13:00,28.0,20.5,29.58,SSW,202,0.0,-999.0,73,-99.99,,,0.00,Acu-Link.com,2013-03-27 01:13:00,
2013-03-26 20:28:00,27.5,21.3,29.59,SW,225,0.0,-999.0,77,-99.99,,,0.00,Acu-Link.com,2013-03-27 01:28:00,
2013-03-26 20:43:00,27.0,20.8,29.58,SW,225,0.0,-999.0,77,-99.99,,,0.00,Acu-Link.com,2013-03-27 01:43:00,
2013-03-26 20:58:00,25.9,20.0,29.59,SW,225,0.0,-999.0,78,-99.99,,,0.00,Acu-Link.com,2013-03-27 01:58:00,
2013-03-26 21:13:00,25.0,19.7,29.59,South,180,0.0,-999.0,80,-99.99,,,0.00,Acu-Link.com,2013-03-27 02:13:00,
2013-03-26 21:28:00,24.4,19.4,29.59,SSW,202,0.0,-999.0,81,-99.99,,,0.00,Acu-Link.com,2013-03-27 02:28:00,
2013-03-26 21:43:00,23.9,19.8,29.60,SSW,202,0.0,-999.0,84,-99.99,,,0.00,Acu-Link.com,2013-03-27 02:43:00,
2013-03-26 21:59:00,23.4,19.3,29.60,SSW,202,0.0,-999.0,84,-99.99,,,0.00,Acu-Link.com,2013-03-27 02:59:00,
2013-03-26 22:14:00,22.6,18.2,29.60,SW,225,0.0,-999.0,83,-99.99,,,0.00,Acu-Link.com,2013-03-27 03:14:00,
2013-03-26 22:29:00,23.9,19.5,29.60,SW,225,0.0,-999.0,83,-99.99,,,0.00,Acu-Link.com,2013-03-27 03:29:00,
2013-03-26 22:44:00,23.9,19.5,29.60,SW,225,0.0,-999.0,83,-99.99,,,0.00,Acu-Link.com,2013-03-27 03:44:00,
2013-03-26 22:59:00,23.7,19.3,29.61,SW,225,0.0,-999.0,83,-99.99,,,0.00,Acu-Link.com,2013-03-27 03:59:00,
2013-03-26 23:14:00,23.2,18.8,29.61,SW,225,0.0,-999.0,83,-99.99,,,0.00,Acu-Link.com,2013-03-27 04:14:00,
2013-03-26 23:29:00,22.5,18.1,29.61,SW,225,0.0,-999.0,83,-99.99,,,0.00,Acu-Link.com,2013-03-27 04:29:00,
2013-03-26 23:44:00,23.9,19.2,29.61,SSW,202,0.0,-999.0,82,-99.99,,,0.00,Acu-Link.com,2013-03-27 04:44:00,
2013-03-26 23:59:00,23.0,18.6,29.61,South,180,0.0,-999.0,83,-99.99,,,0.00,Acu-Link.com,2013-03-27 04:59:00,